Mojave, CA

4:48 PM PST on November 18, 2019 (GMT -0800)
Mojave

Weather History for KMHV - June, 2019

Change the Weather History Date:

Thursday, June 6, 2019

  Actual Average Record
Temperature  
Mean Temperature 81 °F -  
Max Temperature 89 °F 85 °F 102 °F (1981)
Min Temperature 73 °F 60 °F 45 °F (1993)
Cooling Degree Days 16    
Growing Degree Days 31 (Base 50)    
Moisture  
Dew Point 49 °F    
Average Humidity 32    
Maximum Humidity 44    
Minimum Humidity 23    
Precipitation  
Precipitation 0.00 in - - ()
Sea Level Pressure  
Sea Level Pressure 29.91 in    
Wind  
Wind Speed 13 mph (West)    
Max Wind Speed 24 mph    
Max Gust Speed 30 mph    
Visibility 10 miles    
Events      
Averages and records for this station are not official NWS values.
T = Trace of Precipitation, MM = Missing Value Source: NWS Daily Summary

Daily Weather History Graph

Daily Weather History Graph

Search for Another Location

Airport or City:

Astronomy

Jun. 06, 2019 Rise Set
Actual Time 5:38 AM PDT 8:04 PM PDT
Civil Twilight 5:09 AM PDT 8:33 PM PDT
Nautical Twilight 4:32 AM PDT 9:10 PM PDT
Astronomical Twilight 3:52 AM PDT 9:50 PM PDT
Moon 8:51 AM PDT (6/6) 11:27 PM PDT (6/6)
Length of Visible Light 15h 24m
Length of Day
14h 25m
Waxing Crescent, 14% of the Moon is Illuminated
Jun 6
Waxing Crescent
Jun 9
First Quarter
Jun 17
Full
Jun 25
Last Quarter
Jul 2
New

Hourly Weather History & Observations

Time (PDT) Temp. Heat Index Dew Point Humidity Pressure Visibility Wind Dir Wind Speed Gust Speed Precip Events Conditions
12:00 AM 80.6 °F 80.3 °F 53.6 °F 39% 29.92 in 10.0 mi WNW 16.1 mph 23.0 mph N/A   Clear
12:20 AM 80.6 °F 80.3 °F 53.6 °F 39% 29.92 in 10.0 mi West 11.5 mph 20.7 mph N/A   Clear
12:40 AM 78.8 °F - 51.8 °F 39% 29.91 in 10.0 mi SW 8.1 mph 17.3 mph N/A   Clear
1:00 AM 77.0 °F - 51.8 °F 41% 29.91 in 10.0 mi SW 9.2 mph - N/A   Clear
1:20 AM 77.0 °F - 53.6 °F 44% 29.91 in 10.0 mi SW 9.2 mph - N/A   Clear
1:40 AM 77.0 °F - 53.6 °F 44% 29.91 in 10.0 mi SW 13.8 mph - N/A   Clear
2:00 AM 78.8 °F - 53.6 °F 42% 29.91 in 10.0 mi SSW 9.2 mph 17.3 mph N/A   Clear
2:20 AM 78.8 °F - 53.6 °F 42% 29.91 in 10.0 mi SSW 9.2 mph - N/A   Clear
2:40 AM 77.0 °F - 53.6 °F 44% 29.91 in 10.0 mi WSW 5.8 mph 13.8 mph N/A   Clear
3:00 AM 77.0 °F - 53.6 °F 44% 29.91 in 10.0 mi WNW 9.2 mph - N/A   Clear
3:20 AM 77.0 °F - 53.6 °F 44% 29.90 in 10.0 mi WNW 9.2 mph - N/A   Clear
3:40 AM 77.0 °F - 53.6 °F 44% 29.90 in 10.0 mi NW 10.4 mph - N/A   Clear
4:00 AM 77.0 °F - 51.8 °F 41% 29.90 in 10.0 mi Variable 3.5 mph - N/A   Clear
4:20 AM 75.2 °F - 51.8 °F 44% 29.90 in 10.0 mi Calm Calm - N/A   Clear
4:40 AM 77.0 °F - 48.2 °F 36% 29.90 in 10.0 mi Calm Calm - N/A   Clear
5:00 AM 75.2 °F - 48.2 °F 38% 29.90 in 10.0 mi West 8.1 mph - N/A   Partly Cloudy
5:20 AM 75.2 °F - 48.2 °F 38% 29.90 in 10.0 mi West 12.7 mph - N/A   Partly Cloudy
5:40 AM 75.2 °F - 46.4 °F 36% 29.91 in 10.0 mi West 11.5 mph - N/A   Clear
6:00 AM 75.2 °F - 46.4 °F 36% 29.91 in 10.0 mi West 9.2 mph 18.4 mph N/A   Clear
6:20 AM 77.0 °F - 48.2 °F 36% 29.91 in 10.0 mi West 15.0 mph - N/A   Clear
6:40 AM 77.0 °F - 48.2 °F 36% 29.91 in 10.0 mi West 18.4 mph - N/A   Clear
7:00 AM 78.8 °F - 48.2 °F 34% 29.91 in 10.0 mi WNW 17.3 mph - N/A   Clear
7:20 AM 80.6 °F - 50.0 °F 34% 29.91 in 10.0 mi WNW 15.0 mph - N/A   Clear
7:40 AM 80.6 °F - 51.8 °F 37% 29.91 in 10.0 mi WNW 11.5 mph 18.4 mph N/A   Clear
8:00 AM 84.2 °F - 51.8 °F 33% 29.91 in 10.0 mi WNW 13.8 mph - N/A   Clear
8:20 AM 84.2 °F - 51.8 °F 33% 29.92 in 10.0 mi WNW 12.7 mph - N/A   Clear
8:40 AM 86.0 °F - 51.8 °F 31% 29.92 in 10.0 mi WNW 12.7 mph - N/A   Clear
9:00 AM 86.0 °F - 51.8 °F 31% 29.92 in 10.0 mi WNW 11.5 mph 19.6 mph N/A   Clear
9:20 AM 86.0 °F - 51.8 °F 31% 29.92 in 10.0 mi West 15.0 mph - N/A   Clear
9:40 AM 86.0 °F 84.2 °F 53.6 °F 33% 29.92 in 10.0 mi West 12.7 mph - N/A   Clear
10:00 AM 86.0 °F 84.2 °F 53.6 °F 33% 29.92 in 10.0 mi West 12.7 mph - N/A   Clear
10:20 AM 87.8 °F 85.7 °F 53.6 °F 31% 29.92 in 10.0 mi West 9.2 mph 17.3 mph N/A   Clear
10:40 AM 87.8 °F 85.7 °F 53.6 °F 31% 29.92 in 10.0 mi West 12.7 mph - N/A   Clear
11:00 AM 87.8 °F 85.7 °F 53.6 °F 31% 29.92 in 10.0 mi West 11.5 mph 18.4 mph N/A   Clear
11:20 AM 89.6 °F - 51.8 °F 27% 29.93 in 10.0 mi WSW 10.4 mph - N/A   Clear
11:40 AM 89.6 °F - 51.8 °F 27% 29.92 in 10.0 mi WSW 11.5 mph - N/A   Clear
12:00 PM 89.6 °F 87.3 °F 53.6 °F 29% 29.92 in 10.0 mi WNW 15.0 mph - N/A   Clear
12:20 PM 89.6 °F 87.3 °F 53.6 °F 29% 29.92 in 10.0 mi WNW 18.4 mph - N/A   Clear
12:40 PM 89.6 °F 87.3 °F 53.6 °F 29% 29.92 in 10.0 mi West 17.3 mph 24.2 mph N/A   Clear
1:00 PM 89.6 °F 87.3 °F 53.6 °F 29% 29.92 in 10.0 mi WNW 17.3 mph - N/A   Clear
1:20 PM 89.6 °F 87.3 °F 53.6 °F 29% 29.92 in 10.0 mi WNW 18.4 mph - N/A   Clear
1:40 PM 89.6 °F 87.3 °F 53.6 °F 29% 29.92 in 10.0 mi WNW 20.7 mph 27.6 mph N/A   Clear
2:00 PM 89.6 °F - 51.8 °F 27% 29.91 in 10.0 mi WNW 20.7 mph 26.5 mph N/A   Clear
2:20 PM 89.6 °F - 50.0 °F 26% 29.91 in 10.0 mi WNW 24.2 mph - N/A   Clear
2:40 PM 89.6 °F - 50.0 °F 26% 29.91 in 10.0 mi WNW 23.0 mph - N/A   Clear
3:00 PM 89.6 °F - 50.0 °F 26% 29.91 in 10.0 mi WNW 20.7 mph 27.6 mph N/A   Clear
3:20 PM 89.6 °F - 48.2 °F 24% 29.91 in 10.0 mi WNW 19.6 mph 28.8 mph N/A   Clear
3:40 PM 89.6 °F - 48.2 °F 24% 29.91 in 10.0 mi WNW 23.0 mph - N/A   Clear
4:00 PM 87.8 °F - 50.0 °F 27% 29.90 in 10.0 mi NW 21.9 mph - N/A   Clear
4:40 PM 87.8 °F - 46.4 °F 24% 29.90 in 10.0 mi WNW 23.0 mph - N/A   Clear
5:00 PM 87.8 °F - 46.4 °F 24% 29.90 in 10.0 mi WNW 21.9 mph - N/A   Clear
5:20 PM 86.0 °F - 44.6 °F 23% 29.90 in 10.0 mi WNW 19.6 mph 27.6 mph N/A   Clear
5:40 PM 86.0 °F - 44.6 °F 23% 29.90 in 10.0 mi WNW 20.7 mph 26.5 mph N/A   Clear
6:00 PM 84.2 °F - 44.6 °F 25% 29.90 in 10.0 mi West 23.0 mph 28.8 mph N/A   Clear
6:20 PM 84.2 °F - 44.6 °F 25% 29.90 in 10.0 mi WNW 21.9 mph - N/A   Clear
6:40 PM 82.4 °F - 44.6 °F 26% 29.90 in 10.0 mi West 23.0 mph - N/A   Clear
7:00 PM 80.6 °F - 44.6 °F 28% 29.90 in 10.0 mi WNW 24.2 mph 29.9 mph N/A   Clear
7:20 PM 80.6 °F - 42.8 °F 26% 29.90 in 10.0 mi West 20.7 mph 27.6 mph N/A   Clear
7:40 PM 78.8 °F - 41.0 °F 26% 29.91 in 10.0 mi West 17.3 mph 23.0 mph N/A   Clear
8:00 PM 78.8 °F - 39.2 °F 24% 29.91 in 10.0 mi West 12.7 mph 24.2 mph N/A   Clear
8:20 PM 77.0 °F - 39.2 °F 26% 29.91 in 10.0 mi West 16.1 mph 21.9 mph N/A   Clear
8:40 PM 77.0 °F - 39.2 °F 26% 29.90 in 10.0 mi West 13.8 mph 23.0 mph N/A   Clear
9:00 PM 77.0 °F - 39.2 °F 26% 29.91 in 10.0 mi West 17.3 mph 24.2 mph N/A   Clear
9:20 PM 75.2 °F - 41.0 °F 29% 29.91 in 10.0 mi West 15.0 mph 21.9 mph N/A   Clear
9:40 PM 75.2 °F - 41.0 °F 29% 29.91 in 10.0 mi West 18.4 mph 25.3 mph N/A   Clear
10:00 PM 75.2 °F - 41.0 °F 29% 29.92 in 10.0 mi West 13.8 mph 23.0 mph N/A   Clear
10:20 PM 73.4 °F - 41.0 °F 31% 29.92 in 10.0 mi West 18.4 mph - N/A   Clear
10:40 PM 73.4 °F - 41.0 °F 31% 29.91 in 10.0 mi West 18.4 mph - N/A   Clear
11:00 PM 73.4 °F - 41.0 °F 31% 29.91 in 10.0 mi West 16.1 mph 26.5 mph N/A   Clear
11:20 PM 73.4 °F - 41.0 °F 31% 29.90 in 10.0 mi West 18.4 mph 25.3 mph N/A   Clear
11:40 PM 73.4 °F - 42.8 °F 33% 29.90 in 10.0 mi WNW 18.4 mph 27.6 mph N/A   Clear